Regional Weather Roundup
Issued by NWS

Home | Current Version | Previous Version | Graphics & Text | Print | Product List | Glossary On
Versions: 1 2 3 4 5 6 7 8 9 10 11 12 13 14 15 16 17 18 19 20 21 22 23 24 25 26 27 28 29 30 31 32 33 34 35 36 37 38 39 40 41 42 43 44 45 46 47 48 49 50
000
ASUS43 KIND 291459
RWRIN

WEATHER ROUNDUP FOR INDIANA
NATIONAL WEATHER SERVICE INDIANAPOLIS IN
1100 AM EDT WED JUL 29 2015

NOTE: "FAIR" INDICATES FEW OR NO CLOUDS BELOW 12,000 FEET WITH NO
SIGNIFICANT WEATHER AND/OR OBSTRUCTIONS TO VISIBILITY.

* - STATION DOES NOT REPORT WEATHER SUCH AS PRECIPITATION OR FOG.

+ - STATION NOT QUALITY CONTROLLED BY THE NATIONAL WEATHER SERVICE.
    USE DATA WITH CAUTION...ESPECIALLY DEWPOINT AND RELATIVE
    HUMIDITY OBSERVATIONS.

INZ001>003-010>013-019-020-291600-
NORTHWEST INDIANA

CITY           SKY/WX    TMP DP  RH WIND       PRES   REMARKS
GARY /AIRPORT/ PTSUNNY   81  75  83 W7        29.96S
KNOX *+        PTSUNNY   79  72  78 W12       29.96R
MONTICELLO +   CLOUDY    78  74  88 SW6       29.97S
RENSSELAER +   PTSUNNY   77  75  94 W3        29.97S

$$

LMZ046-743>745-291600-
SOUTHERN LAKE MICHIGAN

STATION/POSITION TIME  TEMP    WIND        PRES    WAVE
                       AIR SEA DIR/SP/G            HT
                 (UTC) (F)     (DEG/KT/KT) (MB)    (FT)
BURNS HARBOR     1400   75     250/  8/ 10 1014.9S
MICHIGAN CITY    1400   75     230/ 14/ 15   N/A
5NW MICH CITY    1400   75 74  260/ 10/ 12   N/A     1

$$

INZ004-005-014>016-021>024-291600-
NORTH CENTRAL INDIANA

CITY           SKY/WX    TMP DP  RH WIND       PRES   REMARKS
ELKHART        PTSUNNY   82  72  69 W8        29.96S
GOSHEN         PTSUNNY   82  74  76 W5        29.96R
SOUTH BEND     PTSUNNY   81  73  76 W12       29.97R
WARSAW +       PTSUNNY   81  72  74 N6        29.96S

$$

INZ006>009-017-018-025>027-291600-
NORTHEAST INDIANA

CITY           SKY/WX    TMP DP  RH WIND       PRES   REMARKS
ANGOLA *+      SUNNY     88  75  66 W3        29.95S HX  97
FORT WAYNE     PTSUNNY   84  76  76 VRB6      29.96F

$$

INZ028-029-035-036-043>045-051>053-291600-
WEST CENTRAL INDIANA

CITY           SKY/WX    TMP DP  RH WIND       PRES   REMARKS
CRAWFORDSVL +  CLOUDY    78  71  78 CALM        N/A
GREENCASTLE +  PTSUNNY   81  70  69 CALM      30.00F
LAFAYETTE      PTSUNNY   78  72  81 CALM      29.97S
TERRE HAUTE    PTSUNNY   83  76  79 S6        29.99S

$$

INZ030>032-037>040-046>048-054>057-064-065-291600-
CENTRAL INDIANA

CITY           SKY/WX    TMP DP  RH WIND       PRES   REMARKS
ANDERSON       SUNNY     84  68  58 S6        29.99F
COLUMBUS       SUNNY     84  73  70 NW5       30.00S
GREENWOOD *+   MOSUNNY   84  72  65 CALM      30.00S
INDIANAPOLIS   PTSUNNY   85  71  63 W5        29.98F
-EAGLE CREEK   PTSUNNY   84  73  69 VRB5      29.98F
KOKOMO *+      PTSUNNY   82  73  74 W8        29.97R
MT COMFORT *+  MOSUNNY   86  75  70 SW3       29.99S HX  95
SHELBYVILLE    PTSUNNY   85  76  74 SW3       29.98F

$$

INZ033-034-041-042-049-050-058-059-291600-
EAST CENTRAL INDIANA

CITY           SKY/WX    TMP DP  RH WIND       PRES   REMARKS
MUNCIE         MOSUNNY   84  74  71 MISG      29.96F

$$

INZ060-061-067>069-081>083-085>088-291600-
SOUTHWEST INDIANA

CITY           SKY/WX    TMP DP  RH WIND       PRES   REMARKS
EVANSVILLE     CLOUDY    80  75  84 S5        30.00F
HUNTINGBURG *+ MOSUNNY   88  73  62 N3        30.00R HX  96

$$

INZ062-063-066-070>080-084-089>092-291600-
SOUTH CENTRAL AND SOUTHEAST INDIANA

CITY           SKY/WX    TMP DP  RH WIND       PRES   REMARKS
BLOOMINGTON    MOSUNNY   84  75  74 CALM      30.00F
MADISON *+     MOSUNNY   84  77  79 CALM      30.03S
SEYMOUR +      MOSUNNY   88  75  66 NW3       29.99F HX  97

$$




USA.gov is the U.S. government's official web portal to all federal, state and local government web resources and services.